Location: Melizzano
(41.1500°N, 14.5000°E)
Time: 08:53:39
(UTC+00:00)

Cosmos 1709 Rocket - Pass Details

Date: 03 October 2021
Orbit: 948 x 1002 km, 82.9° (Epoch: 27 October)

Event Time Altitude Azimuth Distance (km) Brightness Sun altitude
Rises 02:59:39 0° 353° (N) 3,630 7.1 -23.4°
Reaches altitude 10° 03:02:09 10° 355° (N) 2,684 6.4 -22.9°
Maximum altitude 03:08:18 81° 83° (E) 973 4.0 -21.8°
Drops below altitude 10° 03:14:28 10° 171° (S) 2,695 6.3 -20.7°
Sets 03:16:58 0° 172° (S) 3,645 7.0 -20.2°
